Regional Weather Roundup
Issued by NWS

Home | Current Version | Previous Version | Text Only | Print | Product List | Glossary On
Versions: 1 2 3 4 5 6 7 8 9 10 11 12 13 14 15 16 17 18 19 20 21 22 23 24 25 26 27
000
ASPQ40 PGUM 010112
RWRPQ
WEATHER ROUNDUP FOR THE MARIANAS AND MICRONESIA
NATIONAL WEATHER SERVICE TIYAN GU
1100 AM CHST SAT NOV 01 2014

GUZ001>004-010200-
MARIANA ISLANDS-

CITY           SKY/WX    TMP DP  RH WIND       PRES   REMARKS
GUAM AIRPORT   SUNNY     84  75  74 NW8       29.83F HX  92
ANDERSEN AFB   PTSUNNY   84  75  74 NW2       29.84F HX  92
ROTA AIRPORT   PTSUNNY   82  75  78 VRB6      29.85F
TINIAN AP      CLOUDY    79  79 100 NE6       29.84F
SAIPAN AP      RAIN      75  75 100 SW9       29.86F FOG

$$

PMZ161-010200-
REPUBLIC OF PALAU-

CITY           SKY/WX    TMP DP  RH WIND       PRES   REMARKS
KOROR AP       CLOUDY    82  77  83 SW20G32   29.77R HX  91
KOROR WSO      LGT RAIN  81  75  83 S12G31    29.76S

$$

PMZ171>174-010200-
FEDERATED STATES OF MICRONESIA-

CITY           SKY/WX    TMP DP  RH WIND       PRES   REMARKS
YAP AIRPORT    CLOUDY    86  79  79 S14G23    29.73S HX  99
CHUUK AP       PTSUNNY   88  84  89 VRB7      29.82F HX 112
POHNPEI AP     CLOUDY    88  77  70 NE5       29.79F HX 100
POHNPEI WSO    PTSUNNY   88  77  70 NE6       29.84F HX 100
KOSRAE AP      MOSUNNY   90  77  66 E7        29.77F HX 102

$$

PMZ181-010200-
REPUBLIC OF THE MARSHALL ISLANDS-

CITY           SKY/WX    TMP DP  RH WIND       PRES   REMARKS
KWAJALEIN AP   SUNNY     88  75  66 E6        29.75F HX  97
MAJURO AP      NOT AVBL
MAJURO WSO     PTSUNNY   88  79  74 S7        29.76F HX 102

$$




USA.gov is the U.S. government's official web portal to all federal, state and local government web resources and services.